Location: Asz�irt�s
(46.4167°N, 22.5333°E)
Time: 04:02:18
(UTC+00:00)

Daily predictions for brighter satellites

Satellite Brightness Start Highest point End
(mag) Time Altitude Azimuth Time Altitude Azimuth Time Altitude Azimuth
SL-16 R/B 3.9 00:12:23 28° N 00:12:23 28° N 00:15:08 10° NNE
Cosmos 2278 Rocket 4.4 00:06:47 10° N 00:11:03 21° NE 00:15:17 10° E
USA 234 3.9 00:07:25 10° NE 00:12:38 50° N 00:12:38 50° N
IDEFIX/ARIANE 42P 4.3 00:22:05 10° NNE 00:25:34 29° ENE 00:25:34 29° ENE
COSMOS 2428 4.0 00:33:22 34° E 00:33:22 34° E 00:37:22 10° NE
Cosmos 2322 Rocket 3.6 00:47:46 29° NNW 00:47:46 29° NNW 00:51:03 10° NNE
NOSS 3-1 (C) 3.9 00:51:13 53° NNE 00:51:13 53° NNE 00:56:06 10° NE
Cosmos 1634 Rocket 4.3 00:53:03 60° N 00:53:03 60° N 00:58:00 10° N
Cosmos 2237 Rocket 4.1 00:54:04 20° ESE 00:55:25 22° E 00:59:39 10° NE
GEOS 3 Rocket 4.5 00:54:23 10° NE 00:58:05 45° NNE 00:58:05 45° NNE
SL-16 R/B 4.1 01:04:36 22° NW 01:04:36 22° NW 01:06:55 10° NNW
Resurs 1-4 Rocket 3.6 00:56:13 10° N 00:58:53 27° NNW 00:58:53 27° NNW
Cosmos 1452 Rocket 4.3 01:04:06 48° ENE 01:04:06 48° ENE 01:08:30 10° NNE
ATLAS 5 CENTAUR R/B 3.5 01:09:47 24° N 01:09:47 24° N 01:12:08 10° NNE
ARIANE 5 R/B 4.0 01:07:10 10° NNE 01:11:40 31° E 01:12:57 27° ESE
Cosmos 2333 Rocket 2.5 01:14:09 59° N 01:14:09 59° N 01:18:52 10° NNE
Cosmos 2142 Rocket 4.4 01:14:58 88° NW 01:14:58 88° NW 01:21:19 10° N
Meteor 1-25 Rocket 4.5 01:09:08 10° N 01:14:59 68° ENE 01:15:49 60° ESE
Sich 1 4.4 01:12:48 10° N 01:15:49 37° NNE 01:15:49 37° NNE
Cosmos 2360 Rocket 3.3 01:19:54 33° NNW 01:19:54 33° NNW 01:24:01 10° NNE
ADEOS II 2.9 01:17:20 10° N 01:21:02 41° NNW 01:21:02 41° NNW
Gbstr 26 Del rocket 4.4 01:22:10 36° WNW 01:25:50 77° NNE 01:32:56 10° ESE
Meteor 2-16 Rocket 4.3 01:20:50 10° N 01:27:01 89° E 01:27:55 68° SSE
MSX 3.8 01:22:30 10° NNE 01:28:19 80° ESE 01:28:53 72° SSE
Cosmos 1782 4.1 01:29:37 38° ENE 01:29:37 38° ENE 01:32:33 10° NNE
Meteor 2-21 Rocket 4.3 01:24:58 10° NNW 01:30:56 73° W 01:30:56 73° W
COSMOS 2441 4.4 01:29:25 10° NNE 01:34:10 76° ENE 01:34:10 76° ENE
USA 229 DEB 3.5 01:34:24 65° W 01:35:07 71° NW 01:42:01 10° NE
USA 229 3.5 01:34:27 65° W 01:35:12 72° NW 01:42:07 10° NE
Cosmos 2219 Rocket 2.4 01:37:17 56° NW 01:37:17 56° NW 01:42:29 10° NNE
CZ-2D R/B 3.8 01:34:50 10° N 01:37:32 20° NW 01:37:32 20° NW
IRS-1D 4.0 01:37:54 10° N 01:42:31 50° NW 01:42:31 50° NW
Cosmos 1340 Rocket 3.6 01:39:40 10° N 01:42:52 48° NNE 01:42:52 48° NNE
Meteor 1-20 Rocket 4.2 01:41:51 10° NNW 01:46:43 58° WNW 01:46:43 58° WNW
OceanSat 1 rocket 4.4 01:48:12 10° NNE 01:52:59 80° WNW 01:53:06 80° W
SL-16 R/B 4.3 01:54:15 13° NW 01:55:01 13° NW 01:57:38 10° N
IRS-P3 4.0 01:50:19 10° NNE 01:55:42 89° ESE 01:57:10 50° SSW
MOS 1 Rocket 3.8 01:51:20 10° SSE 01:55:48 56° ENE 02:00:05 10° N
Cosmos 2278 Rocket 2.0 01:50:08 10° NNW 01:55:51 82° WSW 02:01:31 10° SSE
USA 234 4.4 01:50:15 10° ENE 01:56:04 36° N 01:59:58 19° WNW
NOSS 3-1 (A) 3.6 01:55:54 46° WNW 01:56:47 51° NW 02:03:05 10° NE
Cosmos 1943 Rocket 4.1 01:53:47 10° N 01:58:42 29° NE 02:03:35 10° ESE
Cosmos 2180 Rocket 4.5 01:57:44 52° WSW 01:58:45 59° WNW 02:04:54 10° N
Cosmos 1110 Rocket 3.9 02:01:59 50° SSW 02:03:24 89° ESE 02:08:42 10° NNE
SL-16 R/B 4.1 01:58:54 10° SSE 02:03:32 27° ESE 02:08:11 10° NE
Cosmos 1655 Rocket 3.9 01:57:32 10° NNW 02:03:43 67° W 02:07:24 25° S
IDEFIX/ARIANE 42P 3.2 02:01:36 10° N 02:06:22 37° WNW 02:06:22 37° WNW
Meteor 1-5 Rocket 4.4 02:01:10 10° N 02:06:29 64° ENE 02:11:43 10° SSE
CZ-4B R/B 3.8 02:01:49 10° NNE 02:06:56 68° ESE 02:10:19 22° S
CZ-2C R/B 2.9 02:02:06 10° NNE 02:07:17 63° E 02:11:02 18° S
Cosmos 1666 3.3 02:04:06 10° N 02:07:50 56° ENE 02:11:34 10° SSE
BREEZE-M DEB (TANK) 3.3 01:56:48 10° WNW 02:09:18 89° SSW 02:12:56 10° ESE
PAYLOAD A 4.0 02:08:00 10° NNE 02:12:42 71° ESE 02:15:32 24° S
Cosmos 1470 Rocket 4.2 02:09:37 10° N 02:14:00 55° ENE 02:18:19 10° SSE
COSMOS 2428 3.3 02:15:24 36° WNW 02:16:25 38° NW 02:21:44 10° NNE
CZ-4C R/B 3.2 02:13:22 17° S 02:16:33 38° ESE 02:21:44 10° NE
ALOS 3.0 02:12:34 10° NNE 02:17:09 53° E 02:21:42 10° S
Meteor 2-15 Rocket 4.3 02:13:01 19° S 02:17:29 88° WNW 02:23:37 10° N
Cosmos 1666 Rocket 3.4 02:13:12 10° NNW 02:17:31 65° W 02:18:27 49° SSW
NOSS 2-2 (C) 2.8 02:17:50 81° NW 02:17:50 81° NW 02:21:32 10° NE
CENTAUR R/B 4.4 02:12:52 10° NW 02:20:09 40° NE 02:28:18 10° ESE
Cosmos 1328 Rocket 3.5 02:18:36 30° S 02:20:43 83° E 02:25:04 10° N
SL-24 DEB 4.2 02:17:32 10° N 02:22:20 80° W 02:25:21 23° SSW
Cosmos 2266 Rocket 4.1 02:19:00 10° NNW 02:24:54 50° W 02:29:15 18° SSW
Cosmos 1980 3.6 02:26:42 32° SW 02:29:20 70° WNW 02:35:00 10° NNE
NOSS 0 Rocket 4.0 02:27:39 32° SW 02:30:32 60° WNW 02:36:42 10° NNE
SL-08 R/B 3.5 02:34:15 25° SSW 02:36:28 42° W 02:40:52 10° NNW
Cosmos 2237 Rocket 2.2 02:35:55 28° SW 02:38:57 63° WNW 02:44:39 10° NNE
CZ-2D R/B 3.7 02:36:17 10° N 02:40:33 51° WNW 02:42:22 30° SW
Cosmos 1151 Rocket 3.3 02:39:19 34° WSW 02:40:39 45° WNW 02:44:51 10° N
Cosmos 1536 4.3 02:39:58 10° N 02:43:43 40° ENE 02:47:27 10° SSE
METEOR-M 4.5 02:38:26 10° NNE 02:43:47 67° ESE 02:49:06 10° S
ARIANE 5 R/B 3.1 02:46:09 10° N 02:50:49 37° WNW 02:53:17 23° WSW
Cosmos 1302 Rocket 3.9 02:48:51 14° SSW 02:53:21 75° WNW 02:58:39 10° NNE
BREEZE-M DEB (TANK) 2.5 02:51:51 26° W 02:53:29 46° NNW 02:56:03 10° NE
ATLAS 5 CENTAUR R/B 4.0 02:52:12 10° NW 02:54:07 12° NNW 02:56:08 10° NNE
Cosmos 44 4.1 02:52:39 23° WSW 02:55:34 43° NW 03:00:41 10° NNE
Cosmos 2333 Rocket 4.0 02:56:10 13° WNW 02:58:31 16° NW 03:02:02 10° N
Geosat 3.9 02:55:08 10° SSE 03:00:10 81° WSW 03:05:14 10° NNW
Cosmos 1633 Rocket 3.9 02:56:31 10° NNW 03:00:20 29° W 03:03:40 12° SW
Cosmos 2228 Rocket 4.2 02:56:22 10° SSE 03:00:42 48° E 03:05:07 10° NNE
Cosmos 1812 3.7 03:01:03 24° WSW 03:02:12 28° WNW 03:05:34 10° NNW
Aureole 1 Rocket 3.6 02:58:23 10° NW 03:02:37 32° W 03:06:00 10° SSW
Cosmos 1244 Rocket 4.4 02:56:35 10° NNW 03:02:48 69° W 03:08:56 10° S
Cosmos 2285 Rocket 4.4 03:00:29 16° SW 03:05:09 45° WNW 03:11:12 10° NNE
Cosmos 1782 4.5 03:05:14 16° WNW 03:05:20 16° WNW 03:07:48 10° NNW
CZ-2C R/B 3.0 03:05:06 10° N 03:08:58 49° WNW 03:12:44 10° SSW
Cosmos 1515 Rocket 3.6 03:05:39 10° SSW 03:09:53 54° WNW 03:14:09 10° N
NOSS 2-2 (D) 4.4 03:12:12 17° W 03:13:58 26° NW 03:17:13 10° NNE
Meteor 2-6 Rocket 4.5 03:10:25 10° SSW 03:15:39 46° WNW 03:21:05 10° N
FENGYUN 3A 4.0 03:11:02 10° N 03:16:08 45° WNW 03:21:14 10° SW
Cosmos 1992 Rocket 4.1 03:15:18 10° SSW 03:20:31 83° ESE 03:25:45 10° NNE
Cosmos 1743 3.1 03:17:56 10° N 03:21:50 69° E 03:25:41 10° SSE
Cosmos 2219 Rocket 4.1 03:19:29 10° WNW 03:22:12 13° NW 03:24:53 10° N
Cosmos 1544 3.2 03:20:57 10° NNW 03:24:32 50° W 03:28:04 10° S
H-2A R/B 4.5 03:21:09 10° SE 03:24:58 28° ENE 03:28:46 10° N
X-37B 2.3 03:23:02 10° SW 03:25:44 26° SSE 03:28:27 10° E
Cosmos 968 Rocket 3.8 03:22:38 10° NW 03:27:35 43° WSW 03:32:28 10° S
Cosmos 1484 Rocket 3.0 03:24:01 10° N 03:27:35 43° WNW 03:31:06 10° SW
S3M 4.1 03:23:36 10° S 03:29:58 89° ESE 03:36:18 10° N
USA 234 4.3 03:32:11 10° E 03:38:12 41° NNE 03:44:13 10° NW
Cosmos 1707 Rocket 4.5 03:34:25 10° S 03:38:45 55° E 03:43:09 10° NNE
Cosmos 2278 Rocket 3.8 03:36:40 10° WNW 03:38:58 13° W 03:41:16 10° WSW
Cosmos 1503 Rocket 4.0 03:34:50 10° NNW 03:40:03 85° WSW 03:45:15 10° SSE
Okean 1 4.1 03:36:40 10° S 03:40:32 56° E 03:44:26 10° NNE
Cosmos 1818 3.7 03:36:54 10° SSW 03:42:21 88° SE 03:47:53 10° NE
H-2A R/B 3.0 03:38:31 10° NNE 03:42:25 75° ESE 03:46:17 10° S
Cosmos 1943 Rocket 2.3 03:37:14 10° NW 03:42:45 54° WSW 03:48:15 10° S
CZ-4C R/B 3.0 03:39:47 10° SSE 03:43:03 82° ENE 03:46:28 10° N
Cosmos 2369 Rocket 2.4 03:39:00 10° NNW 03:44:38 80° ENE 03:50:13 10° SSE
CZ-2C R/B 3.9 03:41:13 10° NNW 03:45:01 21° WNW 03:48:47 10° WSW
Cosmos 1709 Rocket 4.2 03:39:35 10° N 03:45:43 80° E 03:51:51 10° S
SKYMED 2 3.6 03:42:25 10° SSE 03:46:46 82° WSW 03:51:08 10° NNW
SJ 16-02 3.5 03:43:12 10° N 03:47:10 31° ENE 03:51:07 10° SE
SL-16 R/B 2.4 03:41:48 10° SW 03:47:19 52° WNW 03:52:52 10° NNE
NOSS 3-2 (C) 4.5 03:39:52 10° NW 03:47:19 72° NE 03:55:51 10° SE
Cosmos 2297 4.1 03:43:40 10° NW 03:49:06 44° WSW 03:54:30 10° S
